TimeEST,TemperatureF,Dew PointF,Humidity,Sea Level PressureIn,VisibilityMPH,Wind Direction,Wind SpeedMPH,Gust SpeedMPH,PrecipitationIn,Events,Conditions,WindDirDegrees,DateUTC
12:17 AM,17.1,8.8,70,30.14,10.0,NNW,5.8,-,N/A,,Overcast,330,2013-11-28 05:17:00
12:37 AM,16.7,8.2,69,30.15,10.0,NW,6.9,-,N/A,,Overcast,320,2013-11-28 05:37:00
12:57 AM,16.5,8.4,70,30.15,10.0,NNW,4.6,-,N/A,,Mostly Cloudy,330,2013-11-28 05:57:00
1:17 AM,16.0,8.6,73,30.15,10.0,NW,4.6,-,N/A,,Overcast,320,2013-11-28 06:17:00
1:36 AM,15.4,8.1,73,30.15,10.0,NNW,8.1,-,N/A,,Scattered Clouds,330,2013-11-28 06:36:00
1:57 AM,15.6,8.4,73,30.16,10.0,NNW,3.5,-,N/A,,Clear,330,2013-11-28 06:57:00
2:17 AM,15.3,8.2,74,30.16,10.0,NNW,3.5,-,N/A,,Clear,340,2013-11-28 07:17:00
2:36 AM,15.3,8.1,73,30.16,10.0,NNW,3.5,-,N/A,,Clear,330,2013-11-28 07:36:00
2:57 AM,14.9,7.5,73,30.17,10.0,NNW,3.5,-,N/A,,Clear,330,2013-11-28 07:57:00
3:17 AM,14.9,7.5,73,30.17,10.0,NNW,5.8,-,N/A,,Clear,330,2013-11-28 08:17:00
3:36 AM,15.1,7.7,73,30.18,10.0,NNW,6.9,-,N/A,,Clear,340,2013-11-28 08:36:00
3:57 AM,14.9,8.1,74,30.18,10.0,NNW,3.5,-,N/A,,Clear,340,2013-11-28 08:57:00
4:17 AM,14.9,8.4,76,30.19,10.0,NNW,4.6,-,N/A,,Clear,340,2013-11-28 09:17:00
4:36 AM,14.7,8.2,75,30.19,10.0,Calm,Calm,-,N/A,,Clear,0,2013-11-28 09:36:00
4:57 AM,12.7,7.5,80,30.20,10.0,Calm,Calm,-,N/A,,Scattered Clouds,0,2013-11-28 09:57:00
5:17 AM,9.9,5.9,84,30.20,10.0,Calm,Calm,-,N/A,,Scattered Clouds,0,2013-11-28 10:17:00
5:37 AM,10.0,6.6,86,30.20,10.0,Calm,Calm,-,N/A,,Clear,0,2013-11-28 10:37:00
5:57 AM,10.2,6.6,85,30.21,10.0,Calm,Calm,-,N/A,,Clear,0,2013-11-28 10:57:00
6:16 AM,10.6,6.4,83,30.22,10.0,Calm,Calm,-,N/A,,Clear,0,2013-11-28 11:16:00
6:37 AM,12.0,7.5,82,30.23,10.0,NE,3.5,-,N/A,,Clear,40,2013-11-28 11:37:00
6:57 AM,13.1,7.3,78,30.23,10.0,Calm,Calm,-,N/A,,Clear,0,2013-11-28 11:57:00
7:16 AM,13.1,7.7,79,30.23,10.0,Calm,Calm,-,N/A,,Clear,0,2013-11-28 12:16:00
7:37 AM,12.4,7.7,82,30.24,10.0,Calm,Calm,-,N/A,,Clear,0,2013-11-28 12:37:00
7:56 AM,12.6,7.7,81,30.25,10.0,ENE,3.5,-,N/A,,Clear,60,2013-11-28 12:56:00
8:17 AM,14.5,7.7,74,30.25,10.0,NE,3.5,-,N/A,,Clear,40,2013-11-28 13:17:00
8:36 AM,14.5,8.1,75,30.25,10.0,Calm,Calm,-,N/A,,Clear,0,2013-11-28 13:36:00
8:57 AM,14.9,8.4,76,30.25,10.0,Calm,Calm,-,N/A,,Scattered Clouds,0,2013-11-28 13:57:00
9:17 AM,15.3,9.1,77,30.26,10.0,Calm,Calm,-,N/A,,Mostly Cloudy,0,2013-11-28 14:17:00
9:36 AM,15.8,9.5,76,30.26,10.0,Calm,Calm,-,N/A,,Overcast,0,2013-11-28 14:36:00
9:57 AM,16.9,9.5,73,30.26,10.0,Calm,Calm,-,N/A,,Overcast,0,2013-11-28 14:57:00
10:17 AM,17.6,9.7,71,30.26,10.0,East,5.8,-,N/A,,Overcast,80,2013-11-28 15:17:00
10:36 AM,18.5,9.7,68,30.27,10.0,Calm,Calm,-,N/A,,Scattered Clouds,0,2013-11-28 15:36:00
10:57 AM,18.5,9.7,68,30.28,10.0,ENE,3.5,-,N/A,,Scattered Clouds,70,2013-11-28 15:57:00
11:17 AM,18.5,8.8,66,30.28,10.0,Calm,Calm,-,N/A,,Overcast,0,2013-11-28 16:17:00
11:36 AM,18.5,8.2,64,30.28,10.0,Calm,Calm,-,N/A,,Overcast,0,2013-11-28 16:36:00
11:57 AM,19.0,8.2,63,30.27,10.0,East,3.5,-,N/A,,Overcast,90,2013-11-28 16:57:00
12:16 PM,19.2,9.3,65,30.27,10.0,ENE,5.8,-,N/A,,Overcast,60,2013-11-28 17:16:00
12:37 PM,19.2,9.5,66,30.27,10.0,SE,4.6,-,N/A,,Overcast,130,2013-11-28 17:37:00
12:56 PM,19.4,10.0,67,30.26,10.0,East,3.5,-,N/A,,Overcast,90,2013-11-28 17:56:00
1:17 PM,20.1,10.9,68,30.26,10.0,East,4.6,-,N/A,,Overcast,80,2013-11-28 18:17:00
1:37 PM,20.3,11.7,69,30.26,10.0,ENE,5.8,-,N/A,,Overcast,70,2013-11-28 18:37:00
1:57 PM,20.7,11.7,68,30.26,10.0,East,4.6,-,N/A,,Overcast,100,2013-11-28 18:57:00
2:17 PM,20.7,11.3,67,30.26,10.0,ENE,3.5,-,N/A,,Overcast,70,2013-11-28 19:17:00
2:37 PM,20.5,12.2,70,30.26,10.0,ENE,4.6,-,N/A,,Overcast,70,2013-11-28 19:37:00
2:57 PM,21.0,12.2,69,30.27,10.0,Calm,Calm,-,N/A,,Mostly Cloudy,0,2013-11-28 19:57:00
3:17 PM,20.8,11.8,68,30.27,10.0,Calm,Calm,-,N/A,,Scattered Clouds,0,2013-11-28 20:17:00
3:36 PM,20.3,11.3,68,30.28,10.0,NNE,3.5,-,N/A,,Scattered Clouds,30,2013-11-28 20:36:00
3:57 PM,19.9,11.3,69,30.29,10.0,NE,3.5,-,N/A,,Mostly Cloudy,40,2013-11-28 20:57:00
4:17 PM,19.8,11.3,70,30.30,10.0,NE,4.6,-,N/A,,Overcast,50,2013-11-28 21:17:00
4:36 PM,19.4,11.1,70,30.30,10.0,NE,3.5,-,N/A,,Overcast,40,2013-11-28 21:36:00
4:57 PM,19.4,11.3,71,30.31,10.0,NE,3.5,-,N/A,,Mostly Cloudy,50,2013-11-28 21:57:00
5:17 PM,18.9,11.5,73,30.32,10.0,Calm,Calm,-,N/A,,Mostly Cloudy,0,2013-11-28 22:17:00
5:36 PM,18.0,11.3,75,30.33,10.0,Calm,Calm,-,N/A,,Scattered Clouds,0,2013-11-28 22:36:00
5:57 PM,16.2,10.9,80,30.33,10.0,Calm,Calm,-,N/A,,Scattered Clouds,0,2013-11-28 22:57:00
6:17 PM,15.6,10.9,82,30.34,10.0,Calm,Calm,-,N/A,,Scattered Clouds,0,2013-11-28 23:17:00
6:37 PM,15.3,11.1,84,30.35,10.0,Calm,Calm,-,N/A,,Scattered Clouds,0,2013-11-28 23:37:00
6:57 PM,15.3,11.3,84,30.35,10.0,Calm,Calm,-,N/A,,Mostly Cloudy,0,2013-11-28 23:57:00
7:16 PM,15.6,12.2,86,30.36,10.0,Calm,Calm,-,N/A,,Overcast,0,2013-11-29 00:16:00
7:37 PM,18.5,12.0,76,30.36,10.0,Calm,Calm,-,N/A,,Overcast,0,2013-11-29 00:37:00
7:57 PM,18.7,12.7,78,30.38,10.0,Calm,Calm,-,N/A,,Overcast,0,2013-11-29 00:57:00
8:17 PM,20.3,12.0,70,30.38,10.0,Calm,Calm,-,N/A,,Overcast,0,2013-11-29 01:17:00
8:37 PM,20.8,12.2,69,30.39,10.0,NE,3.5,-,N/A,,Overcast,50,2013-11-29 01:37:00
8:57 PM,20.8,12.7,71,30.39,10.0,NNE,3.5,-,N/A,,Overcast,30,2013-11-29 01:57:00
9:17 PM,20.7,14.0,75,30.40,10.0,Calm,Calm,-,N/A,,Overcast,0,2013-11-29 02:17:00
9:37 PM,20.8,14.7,77,30.40,10.0,NE,3.5,-,N/A,,Overcast,40,2013-11-29 02:37:00
9:56 PM,20.8,14.9,78,30.40,5.0,NE,3.5,-,N/A,Snow,Light Snow,40,2013-11-29 02:56:00
10:17 PM,20.3,15.8,83,30.41,3.0,NNE,3.5,-,N/A,Snow,Light Snow,20,2013-11-29 03:17:00
10:37 PM,19.4,15.6,85,30.42,5.0,Calm,Calm,-,N/A,Snow,Light Snow,0,2013-11-29 03:37:00
10:57 PM,18.3,14.9,86,30.42,10.0,Calm,Calm,-,N/A,,Overcast,0,2013-11-29 03:57:00
11:17 PM,17.4,14.0,86,30.43,10.0,Calm,Calm,-,N/A,,Mostly Cloudy,0,2013-11-29 04:17:00
11:36 PM,16.0,13.3,89,30.44,10.0,Calm,Calm,-,N/A,,Scattered Clouds,0,2013-11-29 04:36:00
11:57 PM,16.7,13.8,88,30.44,10.0,Calm,Calm,-,N/A,,Mostly Cloudy,0,2013-11-29 04:57:00